Regional Weather Roundup
Issued by NWS

Home | Current Version | Previous Version | Text Only | Print | Product List | Glossary On
Versions: 1 2 3 4 5 6 7 8 9 10 11 12 13 14 15 16 17 18 19 20 21 22 23 24 25 26 27 28 29 30 31 32 33 34 35 36 37 38 39 40 41 42 43 44 45 46 47 48 49 50
000
ASUS46 KSEW 031610
RWRWA

WASHINGTON REGIONAL WEATHER ROUNDUP
NATIONAL WEATHER SERVICE SEATTLE WA
900 AM PDT WED JUN 03 2015

NOTE:"FAIR" INDICATES FEW OR NO CLOUDS BELOW 12,000 FEET WITH NO
SIGNIFICANT WEATHER AND/OR OBSTRUCTIONS TO VISIBILITY.

WAZ505-507>509-031700-
SEATTLE, TACOMA, EVERETT, AND VICINITY

CITY           SKY/WX    TMP DP  RH WIND       PRES   REMARKS
EVERETT        CLOUDY    54  50  86 NE3       30.08S
BOEING FIELD   CLOUDY    58  48  69 SW6       30.08R
RENTON         CLOUDY    57  49  74 CALM      30.07S
SEATAC AIRPORT CLOUDY    56  49  77 SW7       30.08S
JBLM-MCCHORD   NOT AVBL
PUYALLUP       PTSUNNY   55  54  94 SW3       30.08S
BREMERTON      CLOUDY    54  52  94 CALM      30.09F
JBLM-FT LEWIS  CLOUDY    55  52  88 S6        30.07S
TACOMA NARROWS CLOUDY    55  50  83 VRB6      30.08S
$$

WAZ001-503-506-510-514-515-031700-
NORTH INTERIOR

CITY           SKY/WX    TMP DP  RH WIND       PRES   REMARKS
BELLINGHAM     CLOUDY    56  50  80 S7        30.05S
FRIDAY HARBOR  CLOUDY    55  50  83 S3        30.06S
EASTSOUND      PTSUNNY   55  50  82 S7        30.04R
PORT ANGELES   CLOUDY    56  50  80 W8        30.08R
PORT TOWNSEND  CLOUDY    55  52  88 CALM      30.07S
NAS WHIDBEY    CLOUDY    56  53  90 SW9       30.11S
ARLINGTON      CLOUDY    54  48  82 E3        30.09S
BURLINGTON     CLOUDY    54  52  94 S6        30.07S
$$

WAZ020-022-039-040-504-511-512-031700-
SOUTHWEST INTERIOR

CITY           SKY/WX    TMP DP  RH WIND       PRES   REMARKS
SHELTON        CLOUDY    54  49  83 W8        30.05S
OLYMPIA        PTSUNNY   56  49  77 VRB6      30.08R
CHEHALIS       CLOUDY    59  54  82 SW5       30.08S
KELSO          CLOUDY    57  52  82 NW3       30.12S
VANCOUVER      CLOUDY    56  52  86 NW6       30.09R
SCAPPOOSE, OR  CLOUDY    58  53  84 CALM      30.08S
PORTLAND, OR   CLOUDY    58  54  86 N3        30.09S
$$

WAZ021-516-517-031700-
WASHINGTON COAST

CITY           SKY/WX    TMP DP  RH WIND       PRES   REMARKS
FORKS          CLOUDY    55  53  93 CALM      30.08S
HOQUIAM        CLOUDY    55  52  89 W5        30.09R FOG
ASTORIA, OR    CLOUDY    58  51  78 W5        30.09R
$$

WAZ019-023-024-040-518-519-031700-
CASCADE MOUNTAINS AND COLUMBIA GORGE

CITY           SKY/WX    TMP DP  RH WIND       PRES   REMARKS
TROUTDALE, OR  LGT RAIN  57  52  83 CALM      30.08R
THE DALLES, OR MOSUNNY   65  49  56 NW10      30.03S
$$

WAZ026-027-041>044-520-521-031700-
EAST SLOPES

CITY           SKY/WX    TMP DP  RH WIND       PRES   REMARKS
OMAK           CLOUDY    62  53  72 N3        29.95S
WENATCHEE      PTSUNNY   65  40  39 W13       29.97S
ELLENSBURG     CLOUDY    60  43  53 NW21G26   29.99S
YAKIMA         CLOUDY    65  44  46 VRB7      30.00R
$$

WAZ028-034-035-031700-
COLUMBIA BASIN

CITY           SKY/WX    TMP DP  RH WIND       PRES   REMARKS
EPHRATA        CLOUDY    62  44  51 CALM      29.96S
MOSES LAKE     MOSUNNY   63  44  50 SW7       29.98R
PASCO          PTSUNNY   64  47  53 S10       30.00S
HERMISTON, OR  PTSUNNY   63  44  50 W15G22    30.01S
$$

WAZ036>038-031700-
NORTHEAST WASHINGTON

CITY           SKY/WX    TMP DP  RH WIND       PRES   REMARKS
SPOKANE GEIGER MOSUNNY   56  44  64 S14       30.00S
SPOKANE FELTS  PTSUNNY   58  46  64 S12       30.02S
FAIRCHILD AFB  NOT AVBL
COEURDALENE,ID CLOUDY    57  45  62 S7        30.01S
DEER PARK      CLOUDY    54  46  74 S6        30.02R
$$

WAZ029>033-031700-
SOUTHEAST WASHINGTON

CITY           SKY/WX    TMP DP  RH WIND       PRES   REMARKS
PULLMAN        CLOUDY    54  45  71 N3        30.04S
LEWISTON, ID   CLOUDY    60  49  66 N6        30.01S
WALLA WALLA    CLOUDY    61  43  51 S13       30.03R
PENDLETON, OR  PTSUNNY   60  42  51 SW10      30.02S
$$


USA.gov is the U.S. government's official web portal to all federal, state and local government web resources and services.